RYR9NC LIEE-LIRA

Flight info

Callsign RYR9NC
Flight time N/A
Altitude 32000
Route CAR M126 LEDRO DCT ALEDI DCT QUENN DCT ROXAN DCT ESINO
Aircraft B738/M-SDE2E3FGHIRWXY/LB1

Departure

Time 2026-04-27 15:02
Airport Cagliari Elmas Airport (LIEE)

Arrival

Time N/A
Airport Ciampino–G. B. Pastine International Airport (LIRA)
Time Latitude Longitude Altitude Speed Heading
2026-04-27 14:39 39.25262 9.05981 14 ft 0 kts 322°
2026-04-27 14:52 39.25237 9.06006 14 ft 4 kts 322°
2026-04-27 14:52 39.25220 9.06023 17 ft 4 kts 309°
2026-04-27 14:52 39.25217 9.06045 15 ft 4 kts 233°
2026-04-27 14:52 39.25230 9.06066 17 ft 1 kts 232°
2026-04-27 14:53 39.25230 9.06067 17 ft 0 kts 232°
2026-04-27 14:55 39.25228 9.06064 14 ft 2 kts 232°
2026-04-27 14:56 39.25214 9.06041 16 ft 4 kts 232°
2026-04-27 14:56 39.25196 9.06011 14 ft 5 kts 232°
2026-04-27 14:56 39.25164 9.05958 14 ft 9 kts 232°
2026-04-27 14:56 39.25155 9.05885 14 ft 9 kts 294°
2026-04-27 14:57 39.25203 9.05816 14 ft 11 kts 317°
2026-04-27 14:57 39.25261 9.05752 14 ft 12 kts 319°
2026-04-27 14:57 39.25335 9.05671 14 ft 16 kts 319°
2026-04-27 14:57 39.25393 9.05543 14 ft 19 kts 283°
2026-04-27 14:58 39.25433 9.05376 15 ft 21 kts 308°
2026-04-27 14:58 39.25536 9.05226 14 ft 24 kts 316°
2026-04-27 14:58 39.25669 9.05084 14 ft 26 kts 323°
2026-04-27 14:58 39.25816 9.04932 14 ft 28 kts 320°
2026-04-27 14:59 39.25970 9.04766 14 ft 29 kts 320°
2026-04-27 14:59 39.26114 9.04601 14 ft 27 kts 317°
2026-04-27 14:59 39.26123 9.04508 14 ft 5 kts 270°
2026-04-27 14:59 39.26123 9.04507 14 ft 0 kts 270°
2026-04-27 15:01 39.26123 9.04478 14 ft 9 kts 270°
2026-04-27 15:01 39.26080 9.04390 14 ft 14 kts 200°
2026-04-27 15:01 39.25998 9.04443 13 ft 14 kts 139°
2026-04-27 15:01 39.25814 9.04656 15 ft 70 kts 138°
2026-04-27 15:02 39.25274 9.05275 13 ft 135 kts 138°
2026-04-27 15:02 39.24438 9.06211 180 ft 174 kts 140°
2026-04-27 15:02 39.23562 9.07280 1049 ft 172 kts 137°
2026-04-27 15:02 39.22703 9.08332 1981 ft 168 kts 138°
2026-04-27 15:03 39.21828 9.09348 2700 ft 173 kts 137°
2026-04-27 15:03 39.20892 9.10409 3317 ft 187 kts 140°
2026-04-27 15:03 39.19853 9.11362 4178 ft 180 kts 145°
2026-04-27 15:03 39.18893 9.12319 5022 ft 175 kts 132°
2026-04-27 15:04 39.18014 9.13465 5550 ft 189 kts 134°
2026-04-27 15:04 39.16996 9.14716 5752 ft 213 kts 136°
2026-04-27 15:04 39.15861 9.16075 6032 ft 230 kts 137°
2026-04-27 15:04 39.15071 9.17011 6354 ft 235 kts 137°
2026-04-27 15:05 39.13848 9.18448 6943 ft 240 kts 138°
2026-04-27 15:05 39.12181 9.20392 7859 ft 244 kts 139°
2026-04-27 15:05 39.10921 9.21854 8503 ft 249 kts 139°
2026-04-27 15:05 39.09624 9.23355 9180 ft 253 kts 140°
2026-04-27 15:06 39.08314 9.24868 9889 ft 255 kts 140°
2026-04-27 15:06 39.06979 9.26407 10519 ft 258 kts 140°
2026-04-27 15:06 39.06089 9.27432 10948 ft 260 kts 140°
2026-04-27 15:06 39.04730 9.28994 11593 ft 264 kts 140°
2026-04-27 15:07 39.03353 9.30577 12249 ft 267 kts 140°
2026-04-27 15:07 39.02035 9.32278 12908 ft 273 kts 124°
2026-04-27 15:07 39.01368 9.35380 13759 ft 280 kts 84°
2026-04-27 15:07 39.02005 9.37721 14381 ft 281 kts 52°
2026-04-27 15:08 39.03264 9.39636 15036 ft 281 kts 46°
2026-04-27 15:08 39.04594 9.41495 15672 ft 285 kts 46°
2026-04-27 15:08 39.05490 9.42745 16100 ft 287 kts 46°
2026-04-27 15:08 39.06840 9.44646 16775 ft 289 kts 46°
2026-04-27 15:09 39.08197 9.46579 17446 ft 292 kts 47°
2026-04-27 15:09 39.09561 9.48533 18107 ft 295 kts 47°
2026-04-27 15:09 39.10939 9.50508 18706 ft 298 kts 46°
2026-04-27 15:09 39.12472 9.52308 19280 ft 299 kts 37°
2026-04-27 15:10 39.14693 9.54429 20075 ft 302 kts 34°
2026-04-27 15:10 39.15824 9.55476 20468 ft 303 kts 34°
2026-04-27 15:10 39.17541 9.57080 21035 ft 305 kts 35°
2026-04-27 15:10 39.19259 9.58708 21628 ft 308 kts 35°
2026-04-27 15:11 39.20984 9.60362 22196 ft 310 kts 36°
2026-04-27 15:11 39.22719 9.62038 22762 ft 313 kts 36°
2026-04-27 15:11 39.24466 9.63734 23320 ft 315 kts 36°
2026-04-27 15:11 39.26226 9.65445 23841 ft 318 kts 36°
2026-04-27 15:12 39.28000 9.67173 24290 ft 321 kts 36°
2026-04-27 15:12 39.29790 9.68913 24723 ft 324 kts 36°
2026-04-27 15:12 39.31574 9.70644 25153 ft 327 kts 36°
2026-04-27 15:12 39.33400 9.72416 25595 ft 329 kts 36°
2026-04-27 15:13 39.35236 9.74198 26030 ft 332 kts 36°
2026-04-27 15:13 39.37094 9.76003 26493 ft 334 kts 36°
2026-04-27 15:13 39.38939 9.77799 27020 ft 332 kts 36°
2026-04-27 15:13 39.40787 9.79598 27553 ft 331 kts 36°
2026-04-27 15:14 39.42627 9.81391 27998 ft 332 kts 36°
2026-04-27 15:14 39.44475 9.83192 28452 ft 332 kts 36°
2026-04-27 15:14 39.46310 9.84982 28961 ft 331 kts 35°
2026-04-27 15:14 39.48152 9.86781 29397 ft 331 kts 35°
2026-04-27 15:15 39.49966 9.88553 29808 ft 331 kts 35°
2026-04-27 15:15 39.51808 9.90354 30196 ft 333 kts 35°
2026-04-27 15:15 39.53676 9.92181 30302 ft 342 kts 35°
2026-04-27 15:15 39.55602 9.94066 30410 ft 351 kts 35°
2026-04-27 15:16 39.57575 9.95997 30517 ft 361 kts 35°
2026-04-27 15:16 39.59603 9.97985 30608 ft 370 kts 36°
2026-04-27 15:16 39.63791 10.02092 30794 ft 389 kts 36°
2026-04-27 15:17 39.68216 10.06438 30967 ft 408 kts 36°
2026-04-27 15:17 39.72836 10.10984 31130 ft 426 kts 36°
2026-04-27 15:18 39.77652 10.15732 31277 ft 442 kts 36°
2026-04-27 15:18 39.82619 10.20640 31539 ft 454 kts 36°
2026-04-27 15:19 39.85099 10.23094 31834 ft 454 kts 36°
2026-04-27 15:19 39.87613 10.25585 32133 ft 455 kts 36°
2026-04-27 15:19 39.92668 10.30598 32110 ft 455 kts 36°
2026-04-27 15:20 39.97647 10.35545 32118 ft 448 kts 36°
2026-04-27 15:20 40.02613 10.40487 32126 ft 450 kts 36°
2026-04-27 15:21 40.07566 10.45426 32121 ft 451 kts 36°
2026-04-27 15:21 40.12556 10.50411 32120 ft 452 kts 36°
2026-04-27 15:22 40.17540 10.55398 32122 ft 452 kts 36°
2026-04-27 15:22 40.22536 10.60402 32120 ft 452 kts 36°
2026-04-27 15:23 40.27486 10.65370 32125 ft 451 kts 36°
2026-04-27 15:23 40.32451 10.70362 32126 ft 450 kts 36°
2026-04-27 15:24 40.37412 10.75360 32123 ft 449 kts 36°
2026-04-27 15:24 40.42356 10.80351 32122 ft 448 kts 36°
2026-04-27 15:25 40.47290 10.85342 32124 ft 447 kts 36°
2026-04-27 15:25 40.52178 10.90295 32125 ft 447 kts 36°
2026-04-27 15:26 40.57092 10.95284 32115 ft 443 kts 36°
2026-04-27 15:26 40.61940 11.00216 32123 ft 441 kts 36°
2026-04-27 15:27 40.66796 11.05164 32130 ft 442 kts 36°
2026-04-27 15:27 40.71656 11.10126 32121 ft 443 kts 36°
2026-04-27 15:28 40.76404 11.14987 32104 ft 421 kts 36°
2026-04-27 15:28 40.78672 11.17312 32098 ft 406 kts 36°
2026-04-27 15:28 40.80891 11.19586 32117 ft 404 kts 36°